Sample Charts Sidebar
> Live data! Your data is on the web site for you to access within minutes
 
> Detailed data is easily downloaded as data file, which can be opened with Excel
 
> Charts can be customised if necessary
  Chart 1
 

(A maximum of 50 rows are displayed here. Use "Export Data" to see all rows in the date range.)
Date Collected Temperature
(Celcius)
Wind-chill
(Celcius)
Wind Speed
(km/hr)
Gust
(km/hr)
Wind Direction
(degrees)
2021-06-21 19:00 8.1 8.4 0 1 293
2021-06-21 18:00 10.6 10.7 1 3 207
2021-06-21 17:00 12.5 12.2 3 7 210
2021-06-21 16:00 14.2 14.2 0 0 217
2021-06-21 15:00 14.7 13.9 4 10 201
2021-06-21 14:00 15.3 13.9 4 11 201
2021-06-21 13:00 15.1 14.0 4 10 195
2021-06-21 12:00 14.7 14.0 3 11 196
2021-06-21 11:00 14.9 13.4 4 10 227
2021-06-21 10:00 12.4 12.2 2 5 210
2021-06-21 09:00 8.6 8.3 1 3 40
2021-06-21 08:00 6.4 6.2 2 5 39
2021-06-21 07:00 5.2 5.1 2 5 42
2021-06-21 06:00 4.7 4.8 1 4 43
2021-06-21 05:00 5.3 5.3 1 3 48
2021-06-21 04:00 4.8 4.6 2 3 43
2021-06-21 03:00 4.6 4.7 1 3 63
2021-06-21 02:00 5.0 5.0 2 5 35
2021-06-21 01:00 5.3 5.3 2 5 40
2021-06-21 00:00 5.6 5.6 1 2 37
2021-06-20 23:00 6.1 6.2 1 3 59
2021-06-20 22:00 6.3 6.3 1 3 41
2021-06-20 21:00 6.7 6.7 0 1 319
2021-06-20 20:00 7.8 7.9 1 3 47
2021-06-20 19:00 9.5 9.7 0 1 57
2021-06-20 18:00 11.4 11.7 1 3 236
2021-06-20 17:00 13.2 12.9 3 8 213
2021-06-20 16:00 14.2 13.5 4 8 178
2021-06-20 15:00 15.3 13.0 5 13 210
2021-06-20 14:00 14.9 13.8 4 9 222
2021-06-20 13:00 15.2 14.0 4 9 221
2021-06-20 12:00 14.1 13.6 3 8 209
2021-06-20 11:00 14.0 12.9 4 7 225
2021-06-20 10:00 11.2 11.1 1 4 199
2021-06-20 09:00 6.9 6.5 1 2 22
2021-06-20 08:00 2.4 2.3 0 1 1
2021-06-20 07:00 2.3 2.2 1 2 46
2021-06-20 06:00 2.6 2.6 1 3 56
2021-06-20 05:00 3.0 3.1 1 2 6
2021-06-20 04:00 3.3 3.3 1 3 17
2021-06-20 03:00 3.5 3.5 0 2 45
2021-06-20 02:00 3.9 4.0 0 2 24
2021-06-20 01:00 5.0 5.1 0 1 23
2021-06-20 00:00 6.2 6.3 1 1 14
2021-06-19 23:00 6.9 6.9 0 2 286
2021-06-19 22:00 7.0 7.2 0 2 298
2021-06-19 21:00 7.9 7.8 2 4 147
2021-06-19 20:00 8.6 8.7 1 4 146
2021-06-19 19:00 9.6 9.5 2 6 115
2021-06-19 18:00 10.7 10.7 2 6 86